Location: San Floriano
(46.3833°N, 11.5167°E)
Time: 18:25:14
(UTC+00:00)

Daily predictions for brighter satellites

Satellite Brightness Start Highest point End
(mag) Time Altitude Azimuth Time Altitude Azimuth Time Altitude Azimuth
CZ-4B R/B 4.3 17:12:11 10° S 17:17:43 54° W 17:23:12 10° NNW
Timation 1 Rocket 4.4 17:13:00 10° NNW 17:19:00 70° ENE 17:24:55 10° SE
Cosmos 1656 4.0 17:13:55 10° SSW 17:19:27 73° WNW 17:24:58 10° NNE
COSMO-SKYMED 1 2.6 17:15:33 10° NNE 17:19:54 67° ESE 17:24:12 10° S
YAOGAN 1 3.1 17:16:08 10° SE 17:20:07 37° ENE 17:24:07 10° N
Okean-O 3.2 17:17:00 10° SE 17:21:05 38° ENE 17:25:11 10° N
FALCON 9 DEB 4.2 17:18:52 10° SSW 17:21:35 26° SE 17:24:19 10° E
Helios 1A Rocket 4.0 17:18:21 10° ESE 17:21:39 24° ENE 17:24:58 10° N
Cosmos 1500 Rocket 3.6 17:17:28 10° S 17:21:42 54° E 17:25:57 10° NNE
Cosmos 1515 Rocket 3.7 17:17:28 10° N 17:21:54 85° W 17:26:20 10° S
Cosmos 1980 Rocket 2.8 17:17:51 10° S 17:22:56 36° ESE 17:28:05 10° NE
SL-4 R/B 1.7 17:20:17 10° SW 17:23:54 67° SSE 17:27:20 10° ENE
Lacrosse 5 rocket 1.4 17:25:16 10° NW 17:29:45 76° NE 17:33:59 10° SE
FALCON 9 DEB 3.7 17:27:06 10° SSW 17:30:03 36° SE 17:32:59 10° ENE
CSL-04 DEB 4.3 17:26:44 10° NNE 17:30:40 80° ESE 17:34:37 10° SSW
Sich 1 3.9 17:27:29 10° SSE 17:31:12 28° E 17:34:58 10° NNE
Cosmos 1452 Rocket 3.5 17:27:45 10° SSW 17:33:00 83° ESE 17:38:17 10° NNE
Cosmos 44 3.6 17:28:47 10° NNW 17:34:15 72° NE 17:39:39 10° SE
Cosmos 2082 3.7 17:29:28 10° NNW 17:35:08 87° ENE 17:40:45 10° SSE
CZ-4B R/B 1.3 17:34:43 10° N 17:37:45 78° WNW 17:40:46 10° SSW
SJ-11-01 4.4 17:34:31 10° SSE 17:39:04 55° ENE 17:43:39 10° N
Cosmos 1867 4.0 17:35:36 10° S 17:40:37 40° ESE 17:45:42 10° NE
Cosmos 1707 Rocket 4.3 17:38:03 10° N 17:41:59 30° ENE 17:45:52 10° SE
Cosmos 1741 Rocket 4.1 17:38:08 10° NNW 17:43:30 90° N 17:48:49 10° SSE
Cosmos 1437 3.6 17:44:27 10° NNE 17:46:54 24° ENE 17:49:16 10° SE
Cosmos 1697 Rocket 2.8 17:41:25 10° SSW 17:47:05 83° WNW 17:52:47 10° NNE
Cosmos 1633 Rocket 4.2 17:43:55 10° SE 17:47:17 22° E 17:50:40 10° NE
Cosmos 2360 4.2 17:42:22 10° SSW 17:48:04 84° ESE 17:53:49 10° NNE
RESURS DK-1 4.2 17:45:18 10° NW 17:49:04 34° WSW 17:52:47 10° S
USA 234 3.3 17:43:10 10° NE 17:49:40 63° SE 17:56:08 10° SW
ERS-2 2.3 17:46:16 10° NNE 17:49:49 48° E 17:53:21 10° S
Cosmos 1110 Rocket 4.1 17:45:02 10° S 17:50:13 56° ESE 17:55:25 10° NNE
MOS 1 Rocket 4.1 17:46:16 10° N 17:51:00 59° WNW 17:56:02 10° SSW
SL-16 R/B 3.5 17:48:24 10° SE 17:52:05 18° E 17:55:08 12° ENE
IRS-1C Rocket 4.3 17:47:05 10° S 17:52:21 78° WSW 17:57:40 10° NNW
Okean O Rocket 4.4 17:52:53 10° SW 17:56:17 22° W 17:59:42 10° NW
PSLV R/B 3.8 17:54:34 10° NNE 17:58:43 74° ESE 18:02:47 10° S
Cosmos 2369 3.8 17:53:17 10° SSW 17:58:56 84° WNW 18:04:41 10° NNE
SAR-Lupe-4 3.6 17:55:30 10° NNE 17:59:02 56° ESE 18:02:33 10° S
NOSS 2-1 (E) 4.3 17:54:18 10° NW 17:59:17 67° NE 18:06:20 10° SE
USA 305 3.0 17:55:47 10° SW 17:59:59 61° SE 18:03:07 17° ENE
Ariane Rocket 4.1 18:03:13 18° E 18:05:28 24° ENE 18:09:31 10° N
SeaSat 1 2.4 18:00:38 10° NNE 18:05:37 89° ESE 18:10:33 10° SSW
CZ-4 R/B 1.9 18:02:27 10° S 18:06:14 60° W 18:10:04 10° NNW
USA 307 2.9 18:03:33 10° SW 18:07:47 66° SE 18:10:33 21° ENE
Cosmos 2263 Rocket 2.3 18:03:32 10° NNW 18:09:01 54° ENE 18:14:09 12° SE
Cosmos 2074 Rocket 4.0 18:06:24 10° S 18:12:32 59° E 18:18:40 10° NNE
FALCON 9 DEB 2.8 18:10:55 10° SW 18:14:06 78° SE 18:15:24 32° ENE
USA 306 2.8 18:09:54 10° SW 18:14:10 76° SE 18:16:45 23° ENE
SAR-Lupe-1 4.1 18:13:25 10° NNE 18:17:03 84° WNW 18:20:38 10° SSW
USA 308 2.8 18:13:47 10° SW 18:18:03 77° SE 18:20:27 25° ENE
Cosmos 1805 Rocket 3.9 18:15:59 10° SSW 18:20:19 69° W 18:24:44 10° N
Cosmos 1515 4.3 18:18:31 10° N 18:22:03 34° ENE 18:22:18 33° E
Cosmos 2184 Rocket 3.9 18:19:02 10° S 18:25:08 70° E 18:31:17 10° NNE
Meteor 1-27 Rocket 4.2 18:20:23 10° NNW 18:25:50 61° W 18:31:15 10° S
H-2A R/B 3.0 18:20:42 10° S 18:25:58 52° W 18:31:19 10° NNW
ARGOS 3.4 18:21:19 10° S 18:26:43 73° WSW 18:32:10 10° NNW
SJ-6B 3.4 18:28:39 36° E 18:29:20 39° ENE 18:33:10 10° N
OBJECT-B 2.9 18:32:13 16° NNE 18:32:13 16° NNE 18:33:05 10° N
Cosmos 2278 3.9 18:25:40 10° SSW 18:31:20 75° WNW 18:37:04 10° NNE
SL-08 RB Rocket 3.7 18:27:05 10° SSE 18:31:33 85° WSW 18:36:07 10° NNW
Cosmos 1271 Rocket 2.5 18:27:53 10° N 18:31:39 85° ENE 18:35:17 11° SSE
COSMOS 2455 3.1 18:26:33 10° NW 18:32:33 68° WSW 18:38:30 10° SSE
FALCON 9 DEB 3.1 18:29:40 10° WSW 18:32:51 68° NNW 18:33:29 50° NNE
Meteor 1-18 Rocket 4.4 18:27:45 10° N 18:33:34 52° ENE 18:38:04 17° SE
Meteor 1-25 Rocket 4.2 18:28:02 10° S 18:33:47 68° E 18:39:29 10° NNE
GP-B 3.4 18:33:07 34° ESE 18:34:15 41° E 18:38:26 10° NNE
Cosmos 1461 3.6 18:32:42 10° S 18:37:04 39° ESE 18:37:22 39° ESE
MetOp-A 4.1 18:32:13 11° SSE 18:37:23 64° ENE 18:42:42 10° N
Cosmos 1602 3.7 18:34:15 10° S 18:38:02 58° E 18:41:53 10° NNE
CZ-2C R/B 2.6 18:32:27 10° NNE 18:38:03 89° ESE 18:43:30 10° SSW
Cosmos 1689 Rocket 3.9 18:35:39 10° N 18:38:15 31° WNW 18:40:50 10° SW
Okean 1 3.4 18:34:27 10° N 18:38:23 52° ENE 18:38:49 49° ESE
Cosmos 44 Rocket 4.2 18:35:34 10° NNW 18:40:22 35° NE 18:41:15 32° ENE
Cosmos 1666 Rocket 3.5 18:37:51 10° S 18:42:12 86° W 18:46:34 10° N
ATLAS 5 CENTAUR R/B 4.2 18:29:20 10° WSW 18:42:57 46° NW 18:46:35 13° NNE
Cosmos 2084 4.4 18:39:05 10° WSW 18:43:09 46° NW 18:46:19 16° NNE
Cosmos 1862 Rocket 3.5 18:38:53 10° N 18:43:22 68° E 18:45:35 29° SSE
BREEZE-M DEB (TANK) 2.4 18:43:36 10° W 18:45:54 52° N 18:46:16 48° NNE
Meteor 2-12 Rocket 4.4 18:40:04 10° SSE 18:45:55 54° E 18:51:50 10° NNE
Cosmos 1844 Rocket 3.7 18:42:11 10° N 18:46:57 28° NE 18:47:04 27° NE
CSL-04 Rocket 4.3 18:41:54 10° S 18:47:22 60° WSW 18:52:52 10° NNW
Gbstr 26 Del rocket 3.2 18:43:05 10° WSW 18:47:35 86° SSE 18:49:30 40° ENE
Cosmos 2341 Rocket 4.4 18:46:44 33° ESE 18:48:17 38° E 18:54:03 10° NNE
Cosmos 1486 Rocket 4.1 18:43:55 10° NNW 18:49:07 57° ENE 18:50:25 44° ESE
FALCON 9 DEB 3.8 18:54:14 10° WSW 18:56:59 47° NW 18:56:59 47° NW
SL-4 R/B 2.7 19:00:17 10° W 19:03:19 37° NNW 19:03:19 37° NNW
FALCON 9 DEB 4.5 19:02:50 10° W 19:05:10 34° NW 19:05:10 34° NW
Cosmos 1980 Rocket 3.4 19:01:34 10° SW 19:06:53 40° NW 19:12:15 10° NNE
Lacrosse 5 rocket 3.8 19:05:22 10° WNW 19:08:25 19° WSW 19:11:00 11° SSW
Cosmos 1302 Rocket 4.4 19:09:26 10° SSW 19:14:34 62° WNW 19:19:45 10° NNE
Cosmos 2322 Rocket 2.3 19:10:30 10° SSW 19:15:03 54° SSE 19:15:03 54° SSE
Cosmos 968 Rocket 3.6 19:12:43 10° NNW 19:17:59 76° WSW 19:19:11 53° S
Cosmos 1503 Rocket 4.3 19:19:26 10° NNW 19:23:43 54° NNE 19:23:43 54° NNE
Cosmos 1633 Rocket 4.5 19:20:43 10° SW 19:24:49 38° WNW 19:28:59 10° N
USA 234 3.8 19:29:24 29° NE 19:32:37 54° NNW 19:38:55 10° W
SL-16 R/B 2.3 19:29:51 10° SSW 19:35:31 75° WNW 19:37:13 46° NNE
USA 305 4.4 19:36:07 10° W 19:39:14 35° NW 19:39:14 35° NW
Resurs 01 Rocket 3.6 19:44:37 21° N 19:44:37 21° N 19:46:08 10° N
Ariane Rocket 3.7 19:43:24 47° SW 19:44:07 51° W 19:49:06 10° NNW
Cosmos 2263 Rocket 4.1 19:48:07 10° NW 19:52:34 25° WSW 19:55:56 14° SSW
Cosmos 2278 Rocket 4.3 20:24:54 10° NNW 20:26:31 18° N 20:26:31 18° N
Cosmos 1844 Rocket 4.2 20:25:43 10° NW 20:28:45 32° NW 20:28:45 32° NW
